[[{"header":{"parameterUnit":"m.s-1","parameterCategory":2,"la1":30.2991,"la2":30.254,"lo1":-89.0895,"lo2":-89.0444,"dy":0.0017,"dx":0.0017,"nx":28,"ny":28,"refTime":"2025-09-07T03:00:00:Z","depth":"0","parameterNumber":2,"parameterNumberName":"U-component_of_CURRENTS"},"data":[0,0,0,0,0,0,0,0,0,0,0,0,0,0,0,0,0,0,0,0,0,0,0,0,0,0,0,0,0,0,0,0,0,0,0,0,0,0,0,0,0,0,0,0,0,0,0,0,0,0,0,0,0,0,0,0,0,0,-0.2305,-0.2305,0,-0.2315,-0.2314,-0.2314,-0.2288,-0.2288,-0.2288,-0.2287,-0.2269,-0.2269,-0.2268,0,0,0,0,0,0,0,0,0,0,0,0,0,-0.2237,-0.2239,-0.2305,-0.2305,-0.2306,-0.2315,-0.2314,-0.2314,-0.2288,-0.2288,-0.2287,-0.2287,-0.2269,-0.2269,-0.2268,0,0,0,0,0,0,0,0,0,0,0,0,0,-0.2254,-0.2239,-0.2305,-0.2298,-0.2298,-0.2315,-0.2314,-0.2314,-0.2288,-0.2288,-0.2287,-0.2287,-0.2269,-0.2269,-0.2268,-0.2276,0,0,-0.2268,-0.2267,0,0,0,0,0,0,0,0,-0.2253,-0.2256,-0.2299,-0.2299,-0.2299,-0.2304,-0.2284,-0.2302,-0.2288,-0.2286,-0.2287,-0.2287,-0.2282,-0.2281,-0.2276,-0.2275,-0.2274,-0.2267,-0.2267,-0.2267,-0.2267,0,0,0,0,0,0,0,-0.2252,-0.2255,-0.2303,-0.2299,-0.23,-0.2286,-0.2288,-0.2287,-0.2282,-0.2286,-0.2286,-0.2296,-0.2281,-0.2277,-0.2276,-0.2274,-0.2267,-0.2267,-0.2267,-0.2267,-0.2296,-0.2296,0,0,0,0,0,0,-0.2264,-0.2254,-0.2303,-0.2304,-0.228,-0.2288,-0.229,-0.2299,-0.2283,-0.2281,-0.2296,-0.2295,-0.2277,-0.2276,-0.2275,-0.2285,-0.2267,-0.2267,-0.2267,-0.2295,-0.2296,-0.2297,0,0,0,0,0,0,-0.2262,-0.2268,-0.2303,-0.2283,-0.2288,-0.2291,-0.2301,-0.2299,-0.2298,-0.2291,-0.2288,-0.2298,-0.2277,-0.2275,-0.2274,-0.2284,-0.2267,-0.2266,-0.2294,-0.2295,-0.2296,-0.2303,0,0,0,0,0,0,-0.226,-0.2267,-0.2272,-0.2284,-0.2289,-0.2316,-0.2302,-0.23,-0.2308,-0.2305,-0.2292,-0.2289,-0.2276,-0.2275,-0.2274,-0.2283,-0.2266,-0.2292,-0.2294,-0.2296,-0.2302,-0.2305,-0.2307,0,0,0,0,0,-0.2258,-0.2269,-0.2272,-0.2278,-0.2298,-0.2317,-0.2318,-0.2314,-0.2308,-0.231,-0.2299,-0.229,-0.2286,-0.2275,-0.2274,-0.2283,-0.2291,-0.2294,-0.2296,-0.23,-0.2304,-0.2307,0,0,0,0,0,0,-0.2244,-0.2268,-0.2272,-0.229,-0.2306,-0.2315,-0.2317,-0.232,-0.2313,-0.2308,-0.2295,-0.2292,-0.23,-0.2294,-0.2283,-0.23,-0.229,-0.2292,-0.2295,-0.2298,-0.23,-0.2279,-0.2266,0,0,0,0,0,-0.2246,-0.2257,-0.2281,-0.2295,-0.2303,-0.2312,-0.2318,-0.232,-0.2322,-0.2318,-0.2308,-0.2304,-0.2309,-0.2304,-0.2307,-0.2309,-0.2297,-0.2318,-0.2321,-0.2323,-0.2307,-0.2292,-0.2291,-0.2304,-0.2304,-0.2304,0,0,-0.2245,-0.2261,-0.2267,-0.2293,-0.23,-0.2312,-0.2312,-0.2327,-0.2333,-0.2318,-0.2312,-0.2315,-0.2315,-0.2319,-0.2322,-0.2311,-0.232,-0.2326,-0.2327,-0.2309,-0.2294,-0.2292,-0.2291,-0.2305,-0.2305,-0.2305,0,0,-0.2247,-0.2263,-0.227,-0.2284,-0.2306,-0.2315,-0.2324,-0.2336,-0.2334,-0.2342,-0.2334,-0.2331,-0.2341,-0.2328,-0.2329,-0.2348,-0.234,-0.2368,-0.2352,-0.2339,-0.2337,-0.2335,-0.234,-0.2338,-0.2361,-0.2361,-0.2361,0,-0.2243,-0.2253,-0.2276,-0.2287,-0.2293,-0.2319,-0.2324,-0.2335,-0.2343,-0.2338,-0.2343,-0.2343,-0.234,-0.2335,-0.2341,-0.235,-0.2351,-0.2337,-0.2339,-0.2337,-0.2335,-0.234,-0.2338,-0.2362,-0.2361,-0.2361,-0.2361,0,-0.2246,-0.2255,-0.2262,-0.228,-0.2296,-0.2305,-0.233,-0.2338,-0.2346,-0.2351,-0.2353,-0.2348,-0.234,-0.2353,-0.235,-0.2341,-0.2352,-0.2349,-0.2324,-0.2333,-0.234,-0.2337,-0.2362,-0.2362,-0.2362,-0.2362,0,0,-0.2217,-0.2254,-0.225,-0.2252,-0.2287,-0.2296,-0.2317,-0.2329,-0.2333,-0.2344,-0.2339,-0.2342,-0.2336,-0.2335,-0.2336,-0.2321,-0.2314,-0.2327,-0.2326,-0.232,-0.2303,-0.231,-0.2308,-0.2315,-0.2314,-0.2313,-0.2321,0,-0.2199,-0.2208,-0.2236,-0.2239,-0.2241,-0.2275,-0.2291,-0.2311,-0.2329,-0.2336,-0.2335,-0.2338,-0.2335,-0.2333,-0.2317,-0.2323,-0.2306,-0.2313,-0.2304,-0.2304,-0.2298,-0.2304,-0.2241,-0.2241,-0.2318,-0.2318,-0.2318,0,-0.2179,-0.2181,-0.2181,-0.2205,-0.2209,-0.2221,-0.2238,-0.2259,-0.2289,-0.2304,-0.2307,-0.2322,-0.231,-0.2308,-0.2293,-0.2304,-0.2294,-0.2293,-0.2293,-0.2287,-0.2306,-0.2242,-0.2234,-0.2225,-0.2314,-0.2314,-0.2314,0,-0.2118,-0.214,-0.2132,-0.2138,-0.2175,-0.2177,-0.2196,-0.2233,-0.2252,-0.2278,-0.23,-0.2296,-0.2303,-0.2286,-0.23,-0.2293,-0.2295,-0.2284,-0.2277,-0.2279,-0.2213,-0.221,-0.2178,-0.225,-0.225,-0.225,-0.225,0,-0.2075,-0.2064,-0.2099,-0.2087,-0.2079,-0.2125,-0.213,-0.2157,-0.2204,-0.2229,-0.2268,-0.2292,-0.2297,-0.2315,-0.2303,-0.2298,-0.2295,-0.2268,-0.2273,-0.222,-0.2217,-0.2198,-0.2209,-0.2251,-0.2251,-0.225,-0.225,0,-0.1999,-0.2031,-0.2016,-0.2038,-0.2049,-0.2035,-0.209,-0.2103,-0.2161,-0.2199,-0.2211,-0.2285,-0.2311,-0.2331,-0.2323,-0.2308,-0.2263,-0.2291,-0.2243,-0.2242,-0.2211,-0.2225,-0.2153,-0.209,-0.2267,-0.2267,-0.2267,0,-0.1952,-0.1938,-0.1957,-0.1954,-0.1959,-0.1966,-0.1984,-0.2056,-0.2087,-0.2195,-0.221,-0.2273,-0.2316,-0.2338,-0.2328,-0.2318,-0.2266,-0.2234,-0.2191,-0.2195,-0.2215,-0.2182,-0.2131,-0.2118,-0.2117,-0.2116,-0.2115,0,-0.1842,-0.186,-0.185,-0.1849,-0.1859,-0.1878,-0.1913,-0.1942,-0.2043,-0.2107,-0.2192,-0.2242,-0.2306,-0.23,-0.2309,-0.2269,-0.2179,-0.2214,-0.2213,-0.2087,-0.2051,-0.1999,-0.2152,-0.2107,-0.2107,-0.2108,-0.2109,-0.2109,-0.1749,-0.1726,-0.1731,-0.1726,-0.1748,-0.1771,-0.1763,-0.185,-0.191,-0.2008,-0.2118,-0.2214,-0.2259,-0.2276,-0.2242,-0.2162,-0.2144,-0.2078,-0.2096,-0.2062,-0.199,-0.2142,-0.211,-0.2111,-0.2112,-0.2112,-0.2113,0,-0.1615,-0.162,-0.1611,-0.1611,-0.1604,-0.1653,-0.17,-0.1701,-0.1759,-0.192,-0.201,-0.2187,-0.2174,-0.2194,-0.2157,-0.2075,-0.1973,-0.1999,-0.1922,-0.1874,-0.2,-0.1982,-0.1928,-0.1928,-0.1928,-0.1928,-0.1928,-0.1928,-0.1545,-0.1501,-0.1509,-0.1461,-0.147,-0.1433,-0.144,-0.1484,-0.1576,-0.1741,-0.1921,-0.2095,-0.2164,-0.226,-0.2147,-0.2033,-0.1931,-0.1869,-0.1861,-0.1963,-0.1971,-0.1979,-0.1963,-0.1906,-0.1906,-0.1651,-0.165,-0.1649]},{"header":{"parameterUnit":"m.s-1","parameterCategory":2,"la1":30.2991,"la2":30.254,"lo1":-89.0895,"lo2":-89.0444,"dy":0.0017,"dx":0.0017,"nx":28,"ny":28,"refTime":"2025-09-07T03:00:00:Z","depth":"0","parameterNumber":3,"parameterNumberName":"V-component_of_CURRENTS"},"data":[0,0,0,0,0,0,0,0,0,0,0,0,0,0,0,0,0,0,0,0,0,0,0,0,0,0,0,0,0,0,0,0,0,0,0,0,0,0,0,0,0,0,0,0,0,0,0,0,0,0,0,0,0,0,0,0,0,0,-0.0406,-0.0405,0,-0.0311,-0.031,-0.0309,-0.0262,-0.0262,-0.0262,-0.0262,-0.0145,-0.0142,-0.0139,0,0,0,0,0,0,0,0,0,0,0,0,0,-0.0503,-0.0502,-0.0406,-0.0405,-0.0404,-0.0311,-0.031,-0.0308,-0.0262,-0.0262,-0.0262,-0.0262,-0.0146,-0.0143,-0.0139,0,0,0,0,0,0,0,0,0,0,0,0,0,-0.044,-0.0502,-0.0406,-0.0369,-0.0365,-0.0311,-0.031,-0.0308,-0.0262,-0.0262,-0.0262,-0.0262,-0.0148,-0.0143,-0.0139,-0.011,0,0,-0.0124,-0.0122,0,0,0,0,0,0,0,0,-0.0444,-0.0437,-0.0376,-0.0372,-0.0367,-0.0298,-0.0301,-0.0241,-0.0262,-0.0301,-0.0262,-0.0262,-0.0194,-0.0186,-0.0169,-0.0105,-0.01,-0.0124,-0.0121,-0.0119,-0.0118,0,0,0,0,0,0,0,-0.0448,-0.044,-0.0369,-0.0375,-0.0369,-0.0342,-0.0333,-0.0289,-0.0249,-0.0298,-0.0294,-0.0283,-0.0192,-0.0173,-0.0165,-0.0098,-0.0124,-0.012,-0.0117,-0.0115,-0.0023,-0.0023,0,0,0,0,0,0,-0.0462,-0.0445,-0.0372,-0.0366,-0.0406,-0.034,-0.0331,-0.032,-0.0249,-0.0239,-0.0283,-0.0281,-0.0181,-0.0171,-0.0161,-0.013,-0.0119,-0.0115,-0.0112,-0.0023,-0.0023,-0.0023,0,0,0,0,0,0,-0.0465,-0.0456,-0.0375,-0.0403,-0.0391,-0.0339,-0.0327,-0.0318,-0.0297,-0.0239,-0.0228,-0.0271,-0.0181,-0.0168,-0.0126,-0.0125,-0.0113,-0.0109,-0.0022,-0.0023,-0.0023,-0.0062,0,0,0,0,0,0,-0.0468,-0.0458,-0.0457,-0.0404,-0.039,-0.0348,-0.0327,-0.0316,-0.029,-0.0287,-0.0224,-0.0214,-0.018,-0.0134,-0.0122,-0.0118,-0.0105,-0.0022,-0.0022,-0.0023,-0.0061,-0.0064,-0.0067,0,0,0,0,0,-0.0472,-0.0473,-0.0457,-0.0448,-0.0389,-0.0348,-0.0338,-0.0301,-0.029,-0.0282,-0.0243,-0.0216,-0.0129,-0.013,-0.0116,-0.0111,-0.0022,-0.0022,-0.0023,-0.0059,-0.0064,-0.0067,0,0,0,0,0,0,-0.0514,-0.0467,-0.0448,-0.0435,-0.0396,-0.034,-0.0331,-0.0303,-0.0265,-0.0263,-0.0211,-0.0197,-0.0164,-0.0133,-0.0135,-0.0089,-0.0074,-0.0072,-0.0107,-0.011,-0.0113,-0.0118,-0.0101,0,0,0,0,0,-0.0523,-0.0513,-0.046,-0.0449,-0.0433,-0.0382,-0.0361,-0.0334,-0.0292,-0.0275,-0.0233,-0.0192,-0.0156,-0.0131,-0.0096,-0.0061,-0.0032,-0.0053,-0.0056,-0.0059,-0.0055,-0.0013,-0.0012,-0.0026,-0.0026,-0.0026,0,0,-0.0538,-0.0509,-0.0505,-0.0458,-0.0426,-0.0404,-0.037,-0.0341,-0.0322,-0.0268,-0.0236,-0.02,-0.0151,-0.0119,-0.0102,-0.0091,-0.0043,-0.006,-0.0063,-0.0057,-0.0014,-0.0013,-0.0011,-0.0026,-0.0026,-0.0026,0,0,-0.0562,-0.0537,-0.0535,-0.0503,-0.0457,-0.0424,-0.0418,-0.0363,-0.034,-0.0302,-0.0265,-0.0225,-0.017,-0.0131,-0.0105,-0.0103,-0.0065,-0.0099,-0.011,-0.007,-0.0068,-0.0066,-0.0037,-0.0033,-0.0097,-0.0097,-0.0097,0,-0.0581,-0.0566,-0.0528,-0.0512,-0.049,-0.0437,-0.0425,-0.0392,-0.0331,-0.031,-0.0302,-0.0216,-0.0174,-0.0124,-0.0126,-0.0108,-0.0086,-0.0098,-0.0073,-0.0071,-0.0068,-0.0039,-0.0033,-0.0099,-0.0098,-0.0098,-0.0098,0,-0.0594,-0.0582,-0.0578,-0.0542,-0.0516,-0.0497,-0.0446,-0.0421,-0.039,-0.035,-0.0301,-0.0244,-0.0191,-0.0176,-0.0147,-0.0107,-0.0099,-0.0086,-0.0063,-0.0069,-0.0038,-0.0031,-0.0102,-0.0101,-0.01,-0.01,0,0,-0.0636,-0.0598,-0.0595,-0.0586,-0.0529,-0.0511,-0.0483,-0.0436,-0.0418,-0.0362,-0.0332,-0.0263,-0.0229,-0.0198,-0.0155,-0.0115,-0.0079,-0.0096,-0.0093,-0.0067,-0.0,0.0034,0.0044,-0.0063,-0.0062,-0.0061,0.001,0,-0.0655,-0.0647,-0.0615,-0.0605,-0.0596,-0.0543,-0.0523,-0.0474,-0.0431,-0.0392,-0.0321,-0.028,-0.0238,-0.0217,-0.0168,-0.0101,-0.0062,-0.01,0.0002,0.0005,0.0037,0.0054,0.0067,0.0135,0.0017,0.0018,0.0019,0,-0.0675,-0.0664,-0.0663,-0.0637,-0.0629,-0.0615,-0.0574,-0.0546,-0.0475,-0.0442,-0.0379,-0.0325,-0.0247,-0.0224,-0.0101,-0.013,-0.0069,-0.0018,-0.0014,0.0039,0.0052,0.0124,0.0152,0.0297,0.003,0.0029,0.0028,0,-0.0721,-0.07,-0.0704,-0.0691,-0.0651,-0.0643,-0.0623,-0.0562,-0.0546,-0.0472,-0.0453,-0.035,-0.0309,-0.021,-0.0093,-0.01,0.0034,0.0039,0.0127,0.0129,0.0174,0.0179,0.0358,0.012,0.0119,0.0119,0.0119,0,-0.0751,-0.0752,-0.0729,-0.0727,-0.0735,-0.0689,-0.0688,-0.065,-0.0603,-0.059,-0.0485,-0.0451,-0.0306,-0.0208,-0.0102,0.0042,0.0032,0.0135,0.0158,0.0159,0.0162,0.0316,0.0375,0.0122,0.0121,0.0121,0.012,0,-0.0792,-0.0778,-0.0782,-0.0758,-0.0757,-0.0761,-0.0745,-0.0746,-0.0688,-0.0669,-0.0651,-0.0527,-0.0396,-0.0243,-0.0081,0.0024,0.0245,0.0208,0.0197,0.0218,0.0432,0.0486,0.0677,0.0736,0.0317,0.0318,0.0319,0,-0.0807,-0.0814,-0.0815,-0.0834,-0.0825,-0.0829,-0.084,-0.0796,-0.0794,-0.0716,-0.0714,-0.0582,-0.0488,-0.0219,-0.0007,0.0198,0.0299,0.0331,0.033,0.0463,0.054,0.0575,0.0612,0.0367,0.0368,0.0369,0.037,0,-0.083,-0.0835,-0.0843,-0.0888,-0.0911,-0.0933,-0.0941,-0.0955,-0.0906,-0.0887,-0.0826,-0.0742,-0.046,-0.0206,0.0082,0.0209,0.0438,0.0361,0.0511,0.0612,0.0652,0.0711,0.0292,0.0381,0.038,0.0379,0.0379,0.0378,-0.0847,-0.0869,-0.0897,-0.0939,-0.0981,-0.1031,-0.1058,-0.107,-0.1081,-0.105,-0.0933,-0.0796,-0.0374,0.0041,0.0201,0.0564,0.0533,0.0667,0.0725,0.075,0.0811,0.0413,0.0521,0.0521,0.0521,0.0521,0.0521,0,-0.0862,-0.09,-0.0949,-0.1008,-0.1078,-0.1077,-0.1123,-0.1155,-0.1191,-0.1129,-0.106,-0.0625,-0.0209,0.0194,0.0725,0.0927,0.0952,0.1024,0.1085,0.1106,0.0771,0.0778,0.0934,0.0934,0.0933,0.0933,0.0933,0.0933,-0.0874,-0.0928,-0.096,-0.1079,-0.113,-0.121,-0.1242,-0.1287,-0.1261,-0.1152,-0.0945,-0.0769,-0.0115,0.0782,0.1279,0.1313,0.1456,0.1445,0.1526,0.131,0.1281,0.1253,0.1277,0.1534,0.1535,0.1829,0.1832,0.1834]}],[{"header":{"parameterUnit":"m.s-1","parameterCategory":2,"la1":30.2991,"la2":30.254,"lo1":-89.0895,"lo2":-89.0444,"dy":0.0017,"dx":0.0017,"nx":28,"ny":28,"refTime":"2025-09-07T03:00:00:Z","depth":"2","parameterNumber":2,"parameterNumberName":"U-component_of_CURRENTS"},"data":[0,0,0,0,0,0,0,0,0,0,0,0,0,0,0,0,0,0,0,0,0,0,0,0,0,0,0,0,0,0,0,0,0,0,0,0,0,0,0,0,0,0,0,0,0,0,0,0,0,0,0,0,0,0,0,0,0,0,-0.2234,-0.2235,0,-0.2248,-0.2247,-0.2247,-0.2229,-0.2229,-0.2229,-0.2228,-0.2215,-0.2214,-0.2214,0,0,0,0,0,0,0,0,0,0,0,0,0,-0.217,-0.2171,-0.2234,-0.2235,-0.2235,-0.2248,-0.2247,-0.2247,-0.2229,-0.2229,-0.2229,-0.2228,-0.2215,-0.2214,-0.2214,0,0,0,0,0,0,0,0,0,0,0,0,0,-0.2188,-0.2171,-0.2234,-0.2231,-0.2232,-0.2248,-0.2247,-0.2247,-0.2229,-0.2229,-0.2228,-0.2228,-0.2215,-0.2214,-0.2214,-0.2218,0,0,-0.2213,-0.2213,0,0,0,0,0,0,0,0,-0.2187,-0.2189,-0.2231,-0.2232,-0.2232,-0.2241,-0.222,-0.2238,-0.2229,-0.2225,-0.2228,-0.2228,-0.2224,-0.2223,-0.222,-0.2218,-0.2217,-0.2213,-0.2213,-0.2213,-0.2213,0,0,0,0,0,0,0,-0.2185,-0.2188,-0.2234,-0.2232,-0.2233,-0.2223,-0.2224,-0.2223,-0.2221,-0.2225,-0.2225,-0.2235,-0.2224,-0.222,-0.2219,-0.2217,-0.2213,-0.2213,-0.2213,-0.2213,-0.2243,-0.2244,0,0,0,0,0,0,-0.2196,-0.2188,-0.2234,-0.2235,-0.2214,-0.2224,-0.2226,-0.2234,-0.2222,-0.2222,-0.2235,-0.2234,-0.2221,-0.222,-0.2219,-0.2227,-0.2213,-0.2213,-0.2213,-0.2242,-0.2244,-0.2245,0,0,0,0,0,0,-0.2194,-0.22,-0.2234,-0.2216,-0.222,-0.2227,-0.2235,-0.2235,-0.2237,-0.2231,-0.2229,-0.2239,-0.222,-0.2219,-0.2219,-0.2227,-0.2213,-0.2212,-0.2241,-0.2243,-0.2244,-0.2242,0,0,0,0,0,0,-0.2192,-0.2199,-0.2204,-0.2216,-0.2222,-0.2248,-0.2236,-0.2235,-0.2245,-0.2244,-0.2234,-0.2232,-0.222,-0.2219,-0.2219,-0.2226,-0.2212,-0.224,-0.2242,-0.2244,-0.2241,-0.2243,-0.2245,0,0,0,0,0,-0.219,-0.22,-0.2204,-0.221,-0.223,-0.2249,-0.225,-0.225,-0.2246,-0.2249,-0.224,-0.2232,-0.2231,-0.2219,-0.2218,-0.2226,-0.2239,-0.2241,-0.2243,-0.224,-0.2243,-0.2245,0,0,0,0,0,0,-0.2178,-0.22,-0.2205,-0.2222,-0.2238,-0.2248,-0.2252,-0.2256,-0.2252,-0.2248,-0.2237,-0.2234,-0.2242,-0.2239,-0.2226,-0.2244,-0.2238,-0.224,-0.2235,-0.2238,-0.224,-0.2222,-0.2212,0,0,0,0,0,-0.2179,-0.219,-0.2213,-0.2228,-0.2235,-0.2245,-0.2252,-0.2257,-0.2259,-0.2257,-0.2248,-0.2246,-0.2251,-0.2247,-0.225,-0.2252,-0.2243,-0.2261,-0.2264,-0.2265,-0.2252,-0.224,-0.2239,-0.2252,-0.2252,-0.2252,0,0,-0.218,-0.2194,-0.2201,-0.2226,-0.2233,-0.2243,-0.2246,-0.2263,-0.2267,-0.2257,-0.2251,-0.2255,-0.2256,-0.2259,-0.2263,-0.2254,-0.2263,-0.2268,-0.2269,-0.2255,-0.2242,-0.224,-0.2239,-0.2253,-0.2253,-0.2253,0,0,-0.2182,-0.2198,-0.2203,-0.2216,-0.2239,-0.2248,-0.2256,-0.2269,-0.2269,-0.2276,-0.2271,-0.2269,-0.2279,-0.2267,-0.2268,-0.2285,-0.228,-0.2305,-0.229,-0.2279,-0.2277,-0.2275,-0.228,-0.2278,-0.2299,-0.2299,-0.2299,0,-0.218,-0.2187,-0.2209,-0.2217,-0.2223,-0.225,-0.2254,-0.2265,-0.2275,-0.2272,-0.2277,-0.228,-0.2277,-0.2272,-0.2277,-0.2286,-0.2289,-0.2275,-0.2278,-0.2276,-0.2274,-0.228,-0.2278,-0.2299,-0.2299,-0.2299,-0.2299,0,-0.2179,-0.2186,-0.2191,-0.2206,-0.2221,-0.2229,-0.2253,-0.2263,-0.2273,-0.2279,-0.2284,-0.2279,-0.2275,-0.2286,-0.2283,-0.2276,-0.2288,-0.2286,-0.2264,-0.2272,-0.2279,-0.2277,-0.2299,-0.2299,-0.2299,-0.2299,0,0,-0.2151,-0.2183,-0.2178,-0.218,-0.2211,-0.222,-0.2239,-0.2252,-0.2258,-0.227,-0.2268,-0.2269,-0.2269,-0.2269,-0.227,-0.2256,-0.2249,-0.2265,-0.2264,-0.2256,-0.2241,-0.2244,-0.2242,-0.2251,-0.225,-0.2249,-0.2258,0,-0.2131,-0.2135,-0.216,-0.2161,-0.216,-0.2195,-0.2209,-0.2231,-0.2251,-0.226,-0.2262,-0.2267,-0.2265,-0.2266,-0.2251,-0.2258,-0.2242,-0.2248,-0.2246,-0.2246,-0.2235,-0.2239,-0.2049,-0.2039,-0.2256,-0.2255,-0.2255,0,-0.2106,-0.2107,-0.2103,-0.2127,-0.2131,-0.2141,-0.2162,-0.2182,-0.2215,-0.2232,-0.2239,-0.2255,-0.2246,-0.2244,-0.2233,-0.2242,-0.2234,-0.2233,-0.2233,-0.2228,-0.2243,-0.2064,-0.2027,-0.2252,-0.2252,-0.2252,-0.2252,0,-0.2047,-0.2065,-0.2056,-0.2061,-0.2097,-0.21,-0.2121,-0.216,-0.2179,-0.2209,-0.2234,-0.2233,-0.2242,-0.2228,-0.2241,-0.2235,-0.2238,-0.2227,-0.2218,-0.2219,-0.205,-0.2038,-0.2198,-0.2198,-0.2198,-0.2198,-0.2198,0,-0.2002,-0.199,-0.2026,-0.2012,-0.2006,-0.2052,-0.206,-0.2089,-0.2138,-0.2164,-0.2205,-0.2228,-0.2238,-0.2256,-0.2245,-0.224,-0.224,-0.221,-0.2214,-0.205,-0.2038,-0.2213,-0.2215,-0.2198,-0.2198,-0.2198,-0.2198,0,-0.1926,-0.1957,-0.1942,-0.1965,-0.1977,-0.1966,-0.2023,-0.2037,-0.2097,-0.2136,-0.2149,-0.2222,-0.2249,-0.227,-0.2265,-0.225,-0.2239,-0.2232,-0.2056,-0.204,-0.2224,-0.2226,-0.2207,-0.2207,-0.2207,-0.2207,-0.2207,0,-0.1878,-0.1865,-0.1886,-0.1885,-0.189,-0.1901,-0.192,-0.1993,-0.2023,-0.2131,-0.2146,-0.2208,-0.2247,-0.2269,-0.2238,-0.2223,-0.225,-0.2039,-0.1979,-0.2215,-0.2222,-0.2223,-0.2225,-0.1759,-0.1755,-0.1752,-0.175,0,-0.177,-0.1789,-0.178,-0.1783,-0.1795,-0.1814,-0.185,-0.1879,-0.1979,-0.2039,-0.212,-0.2166,-0.2209,-0.2125,-0.2125,-0.2076,-0.2028,-0.1981,-0.2243,-0.1807,-0.1798,-0.1804,-0.1819,-0.1723,-0.1726,-0.1728,-0.1729,-0.173,-0.1682,-0.1659,-0.1667,-0.1664,-0.1688,-0.1709,-0.1701,-0.1781,-0.1835,-0.1909,-0.2019,-0.2041,-0.2038,-0.1963,-0.188,-0.1797,-0.1934,-0.1811,-0.1816,-0.1826,-0.1793,-0.1787,-0.1704,-0.1706,-0.1709,-0.171,-0.1712,0,-0.1553,-0.1559,-0.1551,-0.1553,-0.1544,-0.1595,-0.1639,-0.1627,-0.1671,-0.1775,-0.1839,-0.1704,-0.1673,-0.1664,-0.1519,-0.1506,-0.1441,-0.1412,-0.1311,-0.134,-0.1365,-0.1305,-0.1088,-0.1086,-0.1084,-0.1083,0,0,-0.1486,-0.1442,-0.1449,-0.1402,-0.1413,-0.1373,-0.1379,-0.1394,-0.1436,-0.1456,-0.1481,-0.1633,-0.1662,-0.14,-0.1321,-0.1187,-0.1245,-0.1118,-0.162,-0.1531,-0.1554,-0.1597,-0.1539,0,0,0,0,0]},{"header":{"parameterUnit":"m.s-1","parameterCategory":2,"la1":30.2991,"la2":30.254,"lo1":-89.0895,"lo2":-89.0444,"dy":0.0017,"dx":0.0017,"nx":28,"ny":28,"refTime":"2025-09-07T03:00:00:Z","depth":"2","parameterNumber":3,"parameterNumberName":"V-component_of_CURRENTS"},"data":[0,0,0,0,0,0,0,0,0,0,0,0,0,0,0,0,0,0,0,0,0,0,0,0,0,0,0,0,0,0,0,0,0,0,0,0,0,0,0,0,0,0,0,0,0,0,0,0,0,0,0,0,0,0,0,0,0,0,-0.0296,-0.0295,0,-0.0203,-0.0202,-0.0201,-0.0156,-0.0156,-0.0156,-0.0156,-0.0043,-0.004,-0.0037,0,0,0,0,0,0,0,0,0,0,0,0,0,-0.0388,-0.0387,-0.0296,-0.0295,-0.0293,-0.0203,-0.0202,-0.02,-0.0156,-0.0156,-0.0156,-0.0156,-0.0044,-0.004,-0.0036,0,0,0,0,0,0,0,0,0,0,0,0,0,-0.0327,-0.0386,-0.0296,-0.026,-0.0256,-0.0203,-0.0202,-0.02,-0.0156,-0.0156,-0.0156,-0.0156,-0.0045,-0.004,-0.0036,-0.0007,0,0,-0.0022,-0.002,0,0,0,0,0,0,0,0,-0.0331,-0.0324,-0.0267,-0.0263,-0.0258,-0.0191,-0.0193,-0.0135,-0.0156,-0.0194,-0.0156,-0.0156,-0.009,-0.0082,-0.0065,-0.0002,0.0003,-0.0022,-0.0019,-0.0017,-0.0016,0,0,0,0,0,0,0,-0.0335,-0.0327,-0.0259,-0.0265,-0.026,-0.0233,-0.0225,-0.0181,-0.0143,-0.019,-0.0187,-0.0177,-0.0088,-0.0069,-0.0062,0.0005,-0.0022,-0.0018,-0.0015,-0.0013,0.0076,0.0076,0,0,0,0,0,0,-0.0349,-0.0331,-0.0262,-0.0256,-0.0295,-0.0232,-0.0222,-0.0212,-0.0143,-0.0133,-0.0177,-0.0175,-0.0077,-0.0067,-0.0058,-0.0029,-0.0017,-0.0013,-0.001,0.0076,0.0076,0.0075,0,0,0,0,0,0,-0.0351,-0.0343,-0.0266,-0.0292,-0.028,-0.023,-0.0219,-0.021,-0.0191,-0.0133,-0.0122,-0.0167,-0.0077,-0.0064,-0.0024,-0.0024,-0.0011,-0.0006,0.0077,0.0076,0.0076,0.0034,0,0,0,0,0,0,-0.0354,-0.0345,-0.0345,-0.0293,-0.0279,-0.024,-0.0219,-0.0209,-0.0185,-0.0182,-0.0121,-0.011,-0.0076,-0.0031,-0.002,-0.0018,-0.0003,0.0077,0.0076,0.0076,0.0035,0.0032,0.0029,0,0,0,0,0,-0.0358,-0.036,-0.0345,-0.0337,-0.028,-0.024,-0.023,-0.0195,-0.0185,-0.0178,-0.014,-0.0112,-0.0028,-0.0028,-0.0014,-0.0011,0.0077,0.0077,0.0076,0.0037,0.0032,0.0029,0,0,0,0,0,0,-0.0399,-0.0354,-0.0337,-0.0325,-0.0287,-0.0232,-0.0225,-0.0198,-0.0161,-0.016,-0.0108,-0.0095,-0.0063,-0.0032,-0.0034,0.001,0.0026,0.0028,-0.0008,-0.0012,-0.0015,-0.0021,0.0001,0,0,0,0,0,-0.0409,-0.04,-0.0349,-0.034,-0.0325,-0.0275,-0.0255,-0.0229,-0.0188,-0.0172,-0.0131,-0.0091,-0.0055,-0.0031,0.0003,0.0036,0.0066,0.0043,0.004,0.0037,0.004,0.0081,0.0082,0.0073,0.0073,0.0073,0,0,-0.0425,-0.0397,-0.0393,-0.0348,-0.0318,-0.0297,-0.0263,-0.0237,-0.0219,-0.0165,-0.0135,-0.01,-0.0051,-0.0021,-0.0004,0.0007,0.0052,0.0036,0.0033,0.0038,0.008,0.0081,0.0082,0.0072,0.0072,0.0072,0,0,-0.0449,-0.0426,-0.0425,-0.0395,-0.0351,-0.0319,-0.0313,-0.026,-0.0238,-0.0202,-0.0165,-0.0128,-0.0073,-0.0035,-0.001,-0.001,0.0029,-0.0006,-0.0019,0.002,0.0022,0.0023,0.0052,0.0057,-0.0004,-0.0004,-0.0004,0,-0.047,-0.0455,-0.0419,-0.0404,-0.0384,-0.0332,-0.0322,-0.029,-0.0231,-0.0212,-0.0203,-0.0119,-0.0078,-0.0031,-0.0034,-0.0015,0.0007,-0.0006,0.0016,0.0019,0.0021,0.005,0.0056,-0.0006,-0.0006,-0.0006,-0.0005,0,-0.0483,-0.0472,-0.0469,-0.0435,-0.0411,-0.0394,-0.0344,-0.0321,-0.0292,-0.0253,-0.0207,-0.015,-0.01,-0.0085,-0.0056,-0.002,-0.0011,0.0004,0.0027,0.002,0.0051,0.0057,-0.0009,-0.0008,-0.0008,-0.0007,0,0,-0.0523,-0.0488,-0.0486,-0.0479,-0.0425,-0.0408,-0.0382,-0.0339,-0.0323,-0.0268,-0.024,-0.0174,-0.0141,-0.0111,-0.0069,-0.0031,0.0003,-0.001,-0.0007,0.0018,0.0081,0.0112,0.0123,0.002,0.0021,0.0022,0.0093,0,-0.0543,-0.0537,-0.0507,-0.05,-0.0492,-0.0442,-0.0424,-0.0379,-0.0337,-0.0299,-0.0231,-0.0192,-0.0151,-0.0131,-0.0085,-0.0018,0.002,-0.0018,0.0085,0.0088,0.0118,0.0132,0.011,0.0174,0.01,0.0101,0.0102,0,-0.0561,-0.0553,-0.0555,-0.0534,-0.0526,-0.0515,-0.0477,-0.0451,-0.0383,-0.0352,-0.0292,-0.0238,-0.0165,-0.0141,-0.0021,-0.0049,0.0011,0.0062,0.0066,0.0117,0.0132,0.0172,0.0189,0.0113,0.0112,0.0111,0.0111,0,-0.0606,-0.0588,-0.0596,-0.0584,-0.0548,-0.0544,-0.0526,-0.0469,-0.0454,-0.0383,-0.0365,-0.0266,-0.0225,-0.0129,-0.0013,-0.002,0.0112,0.0118,0.0203,0.0205,0.022,0.0222,0.0196,0.0196,0.0196,0.0195,0.0195,0,-0.0634,-0.0637,-0.0621,-0.0619,-0.0631,-0.0589,-0.059,-0.0555,-0.0511,-0.0498,-0.0398,-0.0364,-0.0222,-0.0126,-0.0023,0.0118,0.011,0.0209,0.0232,0.0203,0.0203,0.0177,0.0174,0.0198,0.0197,0.0197,0.0196,0,-0.0672,-0.0662,-0.0669,-0.0651,-0.0652,-0.0658,-0.0647,-0.0648,-0.0593,-0.0575,-0.0558,-0.0437,-0.031,-0.0161,-0.0002,0.01,0.0233,0.028,0.0235,0.0252,0.0298,0.0292,0.0382,0.0383,0.0385,0.0386,0.0387,0,-0.0686,-0.0695,-0.0702,-0.0723,-0.0717,-0.0725,-0.0737,-0.0696,-0.0695,-0.062,-0.0617,-0.049,-0.0397,-0.0134,0.0067,0.0265,0.0261,0.0362,0.0355,0.0307,0.032,0.0311,0.0303,0.0351,0.0352,0.0353,0.0353,0,-0.0708,-0.0716,-0.0726,-0.0774,-0.08,-0.0824,-0.0834,-0.0847,-0.0801,-0.0782,-0.0722,-0.0639,-0.0371,-0.0141,0.0135,0.0251,0.0334,0.0381,0.0353,0.0308,0.0285,0.0295,0.0287,0.0358,0.0358,0.0357,0.0357,0.0357,-0.0726,-0.0749,-0.078,-0.0825,-0.0867,-0.0916,-0.0944,-0.0952,-0.0961,-0.0918,-0.0812,-0.0664,-0.0404,-0.0016,0.019,0.0392,0.0383,0.044,0.0435,0.0431,0.0415,0.0396,0.0487,0.0487,0.0487,0.0487,0.0488,0,-0.0742,-0.0782,-0.0831,-0.0891,-0.0957,-0.0963,-0.1007,-0.1022,-0.105,-0.0975,-0.0899,-0.0606,-0.0315,-0.0044,0.028,0.0472,0.0455,0.0499,0.0441,0.0436,0.0431,0.0413,0.0486,0.0486,0.0486,0.0487,0,0,-0.0755,-0.0808,-0.0838,-0.0953,-0.1007,-0.1081,-0.1112,-0.1125,-0.1081,-0.1023,-0.0899,-0.0683,-0.0327,-0.0097,0.0152,0.0322,0.0318,0.0334,0.0317,0.0212,0.0204,0.0383,0.0348,0,0,0,0,0]}],[{"header":{"parameterUnit":"m.s-1","parameterCategory":2,"la1":30.2991,"la2":30.254,"lo1":-89.0895,"lo2":-89.0444,"dy":0.0017,"dx":0.0017,"nx":28,"ny":28,"refTime":"2025-09-07T03:00:00:Z","depth":"4","parameterNumber":2,"parameterNumberName":"U-component_of_CURRENTS"},"data":[0,0,0,0,0,0,0,0,0,0,0,0,0,0,0,0,0,0,0,0,0,0,0,0,0,0,0,0,0,0,0,0,0,0,0,0,0,0,0,0,0,0,0,0,0,0,0,0,0,0,0,0,0,0,0,0,0,0,-0.1262,-0.1262,0,-0.1298,-0.1299,-0.13,-0.1359,-0.1359,-0.136,-0.136,-0.1417,-0.1418,-0.1419,0,0,0,0,0,0,0,0,0,0,0,0,0,-0.1193,-0.1194,-0.1262,-0.1262,-0.1262,-0.1298,-0.1299,-0.13,-0.1359,-0.1359,-0.136,-0.136,-0.1417,-0.1418,-0.142,0,0,0,0,0,0,0,0,0,0,0,0,0,-0.1232,-0.1195,-0.1262,-0.129,-0.1293,-0.1298,-0.1299,-0.1301,-0.1359,-0.1359,-0.136,-0.1361,-0.1416,-0.1418,-0.142,-0.1416,0,0,-0.1425,-0.1425,0,0,0,0,0,0,0,0,-0.1229,-0.1235,-0.1286,-0.1288,-0.1291,-0.1319,-0.1295,-0.1338,-0.1358,-0.1341,-0.136,-0.1361,-0.1381,-0.1386,-0.1401,-0.1419,-0.1421,-0.1425,-0.1426,-0.1427,-0.1427,0,0,0,0,0,0,0,-0.1227,-0.1233,-0.1283,-0.1286,-0.1289,-0.1283,-0.1291,-0.1304,-0.1362,-0.1342,-0.1345,-0.1338,-0.1384,-0.1399,-0.1402,-0.1422,-0.1425,-0.1426,-0.1427,-0.1428,-0.1523,-0.1525,0,0,0,0,0,0,-0.1211,-0.1231,-0.1282,-0.1284,-0.1254,-0.1283,-0.1292,-0.1315,-0.1362,-0.1368,-0.1337,-0.134,-0.1396,-0.14,-0.1404,-0.149,-0.1427,-0.1428,-0.1429,-0.1522,-0.1524,-0.1525,0,0,0,0,0,0,-0.121,-0.1216,-0.1281,-0.1251,-0.1258,-0.1284,-0.1309,-0.1315,-0.1349,-0.1357,-0.1364,-0.1365,-0.1396,-0.1402,-0.1444,-0.1489,-0.1429,-0.143,-0.152,-0.1523,-0.1525,-0.1606,0,0,0,0,0,0,-0.1208,-0.1217,-0.124,-0.1251,-0.1259,-0.1301,-0.1307,-0.1315,-0.1338,-0.1344,-0.1383,-0.1388,-0.1397,-0.1442,-0.1446,-0.1491,-0.1432,-0.1518,-0.1521,-0.1524,-0.1601,-0.1611,-0.1619,0,0,0,0,0,-0.1206,-0.1227,-0.1242,-0.1247,-0.1287,-0.1301,-0.1306,-0.1329,-0.1339,-0.1362,-0.1392,-0.1388,-0.1463,-0.1445,-0.1449,-0.1495,-0.1517,-0.152,-0.1524,-0.1597,-0.1609,-0.1618,0,0,0,0,0,0,-0.1208,-0.1234,-0.1251,-0.128,-0.1297,-0.1309,-0.1331,-0.1338,-0.138,-0.1394,-0.1405,-0.1413,-0.1468,-0.1464,-0.1443,-0.153,-0.149,-0.1495,-0.1544,-0.1555,-0.1564,-0.1551,-0.1433,0,0,0,0,0,-0.1217,-0.1249,-0.1262,-0.129,-0.1303,-0.1321,-0.1333,-0.1347,-0.1371,-0.1392,-0.1427,-0.1457,-0.1482,-0.1504,-0.1528,-0.1571,-0.1548,-0.1603,-0.1612,-0.162,-0.1612,-0.1608,-0.1615,-0.1537,-0.1537,-0.1537,0,0,-0.1225,-0.1242,-0.1262,-0.1293,-0.1316,-0.1349,-0.1334,-0.136,-0.1398,-0.1389,-0.1476,-0.1489,-0.1498,-0.1557,-0.1581,-0.1564,-0.1635,-0.1624,-0.1631,-0.1619,-0.1612,-0.162,-0.1626,-0.1539,-0.1539,-0.1539,0,0,-0.1241,-0.1279,-0.1306,-0.1333,-0.1359,-0.1374,-0.1384,-0.1419,-0.1453,-0.151,-0.1519,-0.1556,-0.1609,-0.1629,-0.1639,-0.1704,-0.1678,-0.1719,-0.1761,-0.1758,-0.1764,-0.1769,-0.1769,-0.1773,-0.1728,-0.1728,-0.1728,0,-0.125,-0.1294,-0.1314,-0.135,-0.1377,-0.1391,-0.1428,-0.1463,-0.1513,-0.1536,-0.1551,-0.1623,-0.1642,-0.1685,-0.1721,-0.1725,-0.1715,-0.1723,-0.1768,-0.1773,-0.1776,-0.1775,-0.1778,-0.1733,-0.1732,-0.1732,-0.1731,0,-0.1279,-0.1332,-0.1353,-0.1416,-0.1447,-0.1481,-0.1522,-0.1569,-0.1606,-0.163,-0.1691,-0.1718,-0.1749,-0.1776,-0.1774,-0.1816,-0.1799,-0.1777,-0.1739,-0.1789,-0.1785,-0.1787,-0.1739,-0.1737,-0.1736,-0.1735,0,0,-0.1257,-0.1354,-0.1367,-0.141,-0.1487,-0.1506,-0.1584,-0.1632,-0.1665,-0.1731,-0.1772,-0.1834,-0.1833,-0.1842,-0.1847,-0.186,-0.1897,-0.1839,-0.1837,-0.1836,-0.1893,-0.1792,-0.1785,-0.1882,-0.1882,-0.1883,-0.1887,0,-0.1277,-0.1348,-0.1398,-0.1483,-0.1526,-0.1582,-0.1644,-0.1694,-0.1739,-0.179,-0.1814,-0.1856,-0.1862,-0.1877,-0.1894,-0.1889,-0.1903,-0.1897,-0.1848,-0.1846,-0.1747,-0.1783,-0.1884,-0.1889,-0.1889,-0.1889,-0.189,0,-0.128,-0.1335,-0.1416,-0.1513,-0.1537,-0.1591,-0.1672,-0.1726,-0.179,-0.1823,-0.1863,-0.1879,-0.192,-0.1909,-0.1928,-0.1924,-0.1917,-0.1912,-0.1911,-0.1782,-0.1748,-0.1824,-0.1893,-0.1892,-0.1892,-0.1892,-0.1892,0,-0.1231,-0.1342,-0.1405,-0.1447,-0.156,-0.1605,-0.1656,-0.1731,-0.177,-0.1836,-0.1865,-0.1904,-0.1927,-0.1927,-0.1939,-0.1932,-0.1945,-0.1925,-0.1828,-0.1821,-0.1874,-0.1869,-0.1927,-0.1927,-0.1927,-0.1927,-0.1927,0,-0.1219,-0.1278,-0.1389,-0.1431,-0.1492,-0.1579,-0.1639,-0.1693,-0.1766,-0.1801,-0.1869,-0.1892,-0.1932,-0.1951,-0.1945,-0.1894,-0.1948,-0.1832,-0.1811,-0.1912,-0.1911,-0.1877,-0.1871,-0.1927,-0.1927,-0.1927,-0.1927,0,-0.1163,-0.1245,-0.1319,-0.1439,-0.1474,-0.1513,-0.162,-0.1651,-0.1737,-0.1785,-0.1807,-0.1887,-0.1903,-0.1937,-0.194,-0.1888,-0.1858,-0.1828,-0.195,-0.1936,-0.1735,-0.1733,-0.1701,-0.1697,-0.1694,-0.1691,-0.1689,0,-0.1144,-0.1177,-0.1298,-0.1331,-0.1392,-0.1466,-0.1508,-0.1614,-0.1648,-0.1765,-0.1771,-0.1833,-0.1872,-0.1798,-0.1842,-0.1816,-0.1798,-0.1772,-0.1737,-0.1726,-0.171,-0.1713,-0.1716,-0.1684,-0.1684,-0.1683,-0.1682,0,-0.1095,-0.1141,-0.1193,-0.1256,-0.1312,-0.1369,-0.1441,-0.1458,-0.1574,-0.1672,-0.1688,-0.1699,-0.1719,-0.172,-0.1719,-0.1701,-0.1779,-0.1739,-0.1745,-0.1712,-0.1706,-0.1694,-0.17,-0.1671,-0.1673,-0.1674,-0.1675,0,-0.1041,-0.105,-0.1108,-0.1154,-0.122,-0.1247,-0.1307,-0.1354,-0.1404,-0.1544,-0.1544,-0.1621,-0.17,-0.166,-0.166,-0.1635,-0.1601,-0.1543,-0.1558,-0.157,-0.1525,-0.1498,-0.1377,0,0,0,0,0,-0.0973,-0.0966,-0.1,-0.1044,-0.1107,-0.1146,-0.1247,-0.1313,-0.1435,-0.1406,-0.1473,-0.1489,-0.149,-0.153,-0.1473,-0.1592,-0.1603,-0.1519,-0.1543,-0.1612,-0.1625,-0.1583,0,0,0,0,0,0,-0.0922,-0.0941,-0.0955,-0.094,-0.0953,-0.1011,-0.1072,-0.1162,-0.1159,-0.1289,-0.1295,-0.1392,-0.1411,-0.1494,-0.1437,-0.1449,-0.1433,-0.1573,-0.1569,-0.1605,-0.1616,-0.1626,-0.1588,0,0,0,0,0]},{"header":{"parameterUnit":"m.s-1","parameterCategory":2,"la1":30.2991,"la2":30.254,"lo1":-89.0895,"lo2":-89.0444,"dy":0.0017,"dx":0.0017,"nx":28,"ny":28,"refTime":"2025-09-07T03:00:00:Z","depth":"4","parameterNumber":3,"parameterNumberName":"V-component_of_CURRENTS"},"data":[0,0,0,0,0,0,0,0,0,0,0,0,0,0,0,0,0,0,0,0,0,0,0,0,0,0,0,0,0,0,0,0,0,0,0,0,0,0,0,0,0,0,0,0,0,0,0,0,0,0,0,0,0,0,0,0,0,0,-0.0052,-0.0052,0,0.001,0.0011,0.0011,0.0061,0.0062,0.0062,0.0063,0.0129,0.0131,0.0132,0,0,0,0,0,0,0,0,0,0,0,0,0,-0.0076,-0.0076,-0.0052,-0.0052,-0.0051,0.001,0.0011,0.0011,0.0061,0.0062,0.0062,0.0063,0.0129,0.0131,0.0132,0,0,0,0,0,0,0,0,0,0,0,0,0,-0.0044,-0.0076,-0.0053,-0.0019,-0.0016,0.0009,0.0011,0.0012,0.0061,0.0062,0.0063,0.0063,0.0129,0.013,0.0132,0.0131,0,0,0.0139,0.0139,0,0,0,0,0,0,0,0,-0.0046,-0.0044,-0.0025,-0.0021,-0.0017,0.0028,0.0027,0.0052,0.0061,0.0033,0.0063,0.0064,0.0095,0.01,0.0111,0.0134,0.0137,0.0139,0.014,0.0141,0.0141,0,0,0,0,0,0,0,-0.0049,-0.0046,-0.0027,-0.0024,-0.002,0.0011,0.0015,0.0032,0.006,0.0035,0.0039,0.0045,0.0097,0.0109,0.0113,0.0138,0.0139,0.0141,0.0142,0.0143,0.0179,0.0178,0,0,0,0,0,0,-0.0061,-0.0048,-0.0029,-0.0025,-0.0031,0.001,0.0016,0.0013,0.0059,0.0067,0.0044,0.0047,0.0105,0.011,0.0115,0.0119,0.0141,0.0143,0.0144,0.0179,0.0179,0.0178,0,0,0,0,0,0,-0.0062,-0.006,-0.0032,-0.0035,-0.0029,0.0009,0.0007,0.0014,0.0029,0.0066,0.0074,0.0051,0.0106,0.0112,0.0131,0.0122,0.0144,0.0146,0.0179,0.0179,0.0178,0.0125,0,0,0,0,0,0,-0.0063,-0.0061,-0.0067,-0.0036,-0.003,-0.0019,0.0006,0.0015,0.0031,0.0035,0.0075,0.0082,0.0107,0.0128,0.0133,0.0125,0.0147,0.0179,0.0179,0.0179,0.0127,0.0123,0.0119,0,0,0,0,0,-0.0064,-0.0075,-0.0068,-0.0066,-0.004,-0.002,-0.0014,0.0017,0.003,0.0034,0.0061,0.0081,0.0129,0.0129,0.0135,0.0128,0.018,0.0179,0.0179,0.0129,0.0123,0.0119,0,0,0,0,0,0,-0.0084,-0.007,-0.0062,-0.0067,-0.0047,-0.0012,-0.0008,0.0013,0.0037,0.0042,0.0077,0.0086,0.0098,0.012,0.012,0.0138,0.0157,0.0158,0.0117,0.0113,0.0109,0.0105,0.0149,0,0,0,0,0,-0.0094,-0.01,-0.0077,-0.008,-0.0076,-0.0044,-0.0032,-0.001,0.0015,0.0027,0.0052,0.0079,0.01,0.0112,0.0133,0.0141,0.0169,0.0141,0.0137,0.0133,0.0135,0.017,0.0169,0.0176,0.0176,0.0176,0,0,-0.0103,-0.0095,-0.0098,-0.0085,-0.007,-0.0069,-0.0035,-0.0021,-0.0016,0.0029,0.0037,0.0065,0.0099,0.011,0.0117,0.0127,0.0145,0.0133,0.0129,0.0133,0.0169,0.0168,0.0168,0.0176,0.0176,0.0176,0,0,-0.0122,-0.0119,-0.0131,-0.0122,-0.0103,-0.0084,-0.0084,-0.0054,-0.0039,-0.0025,0.0008,0.0031,0.0058,0.0084,0.01,0.0087,0.0122,0.0091,0.0069,0.0101,0.0101,0.0101,0.0129,0.0132,0.0089,0.0089,0.0089,0,-0.0131,-0.0147,-0.0129,-0.0137,-0.0136,-0.0097,-0.0107,-0.0088,-0.0053,-0.0043,-0.003,0.002,0.0047,0.0069,0.0065,0.0078,0.0102,0.0082,0.0096,0.0097,0.0098,0.0127,0.0131,0.0087,0.0087,0.0087,0.0087,0,-0.0157,-0.0172,-0.0179,-0.0183,-0.0176,-0.0177,-0.0153,-0.0142,-0.0121,-0.0095,-0.0069,-0.0028,0.0006,0.0014,0.0036,0.0054,0.007,0.0085,0.0106,0.0094,0.0125,0.013,0.0083,0.0084,0.0084,0.0085,0,0,-0.0173,-0.0195,-0.0199,-0.0214,-0.0202,-0.02,-0.0198,-0.0181,-0.0173,-0.0138,-0.0124,-0.0084,-0.0051,-0.003,0.0003,0.0032,0.0056,0.0057,0.006,0.0081,0.0126,0.0124,0.013,0.0073,0.0074,0.0074,0.0142,0,-0.02,-0.0236,-0.0235,-0.0265,-0.0282,-0.0258,-0.0259,-0.0235,-0.0207,-0.0184,-0.0131,-0.0105,-0.0071,-0.0055,-0.002,0.004,0.0068,0.0036,0.0138,0.0141,0.0138,0.0135,0.0076,0.0146,0.0147,0.0148,0.0149,0,-0.0222,-0.0249,-0.029,-0.0314,-0.0319,-0.0328,-0.032,-0.0313,-0.0268,-0.0244,-0.02,-0.0153,-0.0101,-0.0074,0.0025,0.0003,0.0057,0.0104,0.0108,0.013,0.0149,0.0164,0.0159,0.0158,0.0157,0.0157,0.0156,0,-0.0243,-0.0283,-0.0321,-0.033,-0.0349,-0.0361,-0.0362,-0.0331,-0.0327,-0.0278,-0.0262,-0.0187,-0.0153,-0.0069,0.0032,0.0029,0.0142,0.0151,0.0201,0.0201,0.0207,0.0206,0.0215,0.0215,0.0215,0.0215,0.0215,0,-0.0267,-0.03,-0.0338,-0.0361,-0.0399,-0.0395,-0.0415,-0.0399,-0.0376,-0.037,-0.0295,-0.0266,-0.0151,-0.0068,0.0023,0.0131,0.0139,0.0199,0.022,0.0182,0.0177,0.021,0.0209,0.0217,0.0217,0.0216,0.0216,0,-0.0281,-0.0308,-0.0356,-0.0398,-0.0413,-0.0436,-0.0461,-0.0469,-0.0439,-0.0429,-0.0416,-0.0325,-0.0219,-0.0097,0.004,0.0112,0.0221,0.0255,0.0205,0.0222,0.0259,0.0254,0.0314,0.0315,0.0315,0.0315,0.0316,0,-0.0294,-0.0321,-0.0384,-0.0419,-0.0444,-0.0481,-0.0505,-0.05,-0.0505,-0.046,-0.0454,-0.0359,-0.0286,-0.0089,0.0039,0.0213,0.0234,0.0291,0.0275,0.0256,0.027,0.0264,0.0259,0.0316,0.0316,0.0317,0.0317,0,-0.0316,-0.0336,-0.0375,-0.0446,-0.0492,-0.0539,-0.0571,-0.058,-0.0567,-0.0546,-0.0481,-0.0372,-0.0256,-0.0099,0.0035,0.0161,0.0257,0.0296,0.0295,0.0281,0.0259,0.0272,0.0266,0.0318,0.0318,0.0318,0.0318,0,-0.0324,-0.0351,-0.0401,-0.0461,-0.0526,-0.0579,-0.0595,-0.06,-0.06,-0.055,-0.0529,-0.0391,-0.0313,-0.0124,0.0006,0.0125,0.015,0.0188,0.0194,0.0194,0.014,0.0094,0.0121,0,0,0,0,0,-0.0327,-0.0357,-0.0415,-0.0483,-0.0551,-0.0591,-0.0631,-0.0637,-0.0628,-0.0592,-0.0561,-0.0449,-0.0255,-0.0159,-0.0044,0.001,0.0168,0.015,0.0215,0.0327,0.0325,0.0282,0,0,0,0,0,0,-0.0329,-0.0376,-0.0408,-0.0491,-0.0545,-0.0617,-0.0649,-0.0646,-0.0616,-0.0588,-0.0484,-0.0423,-0.0232,-0.0328,-0.0044,-0.0005,0.0052,0.0244,0.0247,0.0328,0.0326,0.0325,0.028,0,0,0,0,0]}]]